When you browse on this site, cookies collect data to enhance your experience and personalize the content and advertising you see.
Visit our Privacy Policy to learn more. By continuing to use the site, you agree to this use of cookies and data.
  • In Schweiz
  • Länderverzeichnis
  • Für 7 Tage
  • Wassertemperatur
  • Wetterkarte
  • Widgets
  • user-avatar
    Anmelden

    Stündliche Wetter Bern

    Heute, 30 Mai, Samstag

    Zeit Temperatur Niederschläge Wind Luftdruck Luftfeuchtigkeit
    00:00 +9°C° 0 mm 1 m/S 716 mmHg 93%
    01:00 +9°C° 0 mm 1 m/S 716 mmHg 93%
    02:00 +8°C° 0 mm 1 m/S 716 mmHg 93%
    03:00 +8°C° 0 mm 1 m/S 716 mmHg 94%
    04:00 +9°C° 0 mm 1 m/S 716 mmHg 89%
    05:00 +10°C° 0 mm 1 m/S 716 mmHg 85%
    06:00 +12°C° 0 mm 1 m/S 716 mmHg 81%
    07:00 +13°C° 0 mm 2 m/S 716 mmHg 74%
    08:00 +15°C° 0 mm 2 m/S 716 mmHg 68%
    09:00 +17°C° 0 mm 3 m/S 716 mmHg 61%
    10:00 +18°C° 0 mm 3 m/S 716 mmHg 57%
    11:00 +18°C° 0 mm 3 m/S 716 mmHg 54%
    12:00 +19°C° 0 mm 3 m/S 715 mmHg 50%
    13:00 +19°C° 0 mm 4 m/S 715 mmHg 49%
    14:00 +19°C° 0 mm 4 m/S 715 mmHg 48%
    15:00 +19°C° 0 mm 4 m/S 715 mmHg 47%
    16:00 +18°C° 0 mm 3 m/S 715 mmHg 54%
    17:00 +17°C° 0 mm 3 m/S 715 mmHg 60%
    18:00 +16°C° 0 mm 2 m/S 714 mmHg 67%
    19:00 +14°C° 0 mm 2 m/S 715 mmHg 74%
    20:00 +12°C° 0 mm 2 m/S 715 mmHg 80%
    21:00 +10°C° 0 mm 2 m/S 715 mmHg 87%
    22:00 +9°C° 0 mm 2 m/S 715 mmHg 89%
    23:00 +8°C° 0 mm 2 m/S 715 mmHg 91%

    Morgen, 31 Mai, Sonntag

    Zeit Temperatur Niederschläge Wind Luftdruck Luftfeuchtigkeit
    00:00 +9°C° 0 mm 1 m/S 715 mmHg 93%
    01:00 +8°C° 0 mm 1 m/S 714 mmHg 93%
    02:00 +8°C° 0 mm 1 m/S 714 mmHg 94%
    03:00 +8°C° 0 mm 1 m/S 714 mmHg 94%
    04:00 +9°C° 0 mm 1 m/S 714 mmHg 89%
    05:00 +9°C° 0 mm 2 m/S 715 mmHg 85%
    06:00 +10°C° 0 mm 2 m/S 715 mmHg 80%
    07:00 +13°C° 0 mm 2 m/S 715 mmHg 72%
    08:00 +14°C° 0 mm 3 m/S 715 mmHg 64%
    09:00 +17°C° 0 mm 3 m/S 715 mmHg 57%
    10:00 +18°C° 0 mm 4 m/S 715 mmHg 53%
    11:00 +19°C° 0 mm 4 m/S 715 mmHg 50%
    12:00 +20°C° 0 mm 4 m/S 715 mmHg 47%
    13:00 +20°C° 0 mm 4 m/S 715 mmHg 48%
    14:00 +20°C° 0 mm 4 m/S 715 mmHg 48%
    15:00 +21°C° 0 mm 4 m/S 715 mmHg 49%
    16:00 +19°C° 0 mm 3 m/S 715 mmHg 55%
    17:00 +18°C° 0 mm 3 m/S 715 mmHg 61%
    18:00 +17°C° 0 mm 3 m/S 714 mmHg 67%
    19:00 +14°C° 0 mm 3 m/S 714 mmHg 73%
    20:00 +13°C° 0 mm 2 m/S 714 mmHg 80%
    21:00 +10°C° 0 mm 2 m/S 715 mmHg 86%
    22:00 +10°C° 0 mm 2 m/S 714 mmHg 88%
    23:00 +10°C° 0 mm 1 m/S 714 mmHg 90%

    übermorgen, 1 Juni, Montag

    Zeit Temperatur Niederschläge Wind Luftdruck Luftfeuchtigkeit
    00:00 +9°C° 0 mm 1 m/S 714 mmHg 91%
    01:00 +9°C° 0 mm 1 m/S 714 mmHg 91%
    02:00 +9°C° 0 mm 1 m/S 714 mmHg 91%
    03:00 +8°C° 0 mm 1 m/S 714 mmHg 91%
    04:00 +10°C° 0 mm 1 m/S 714 mmHg 87%
    05:00 +11°C° 0 mm 1 m/S 715 mmHg 82%
    06:00 +13°C° 0 mm 1 m/S 715 mmHg 78%
    07:00 +15°C° 0 mm 1 m/S 715 mmHg 71%
    08:00 +17°C° 0 mm 2 m/S 715 mmHg 64%
    09:00 +19°C° 0 mm 2 m/S 715 mmHg 57%
    10:00 +20°C° 0 mm 2 m/S 715 mmHg 52%
    11:00 +23°C° 0 mm 2 m/S 715 mmHg 48%
    12:00 +24°C° 0 mm 2 m/S 715 mmHg 44%
    13:00 +24°C° 0 mm 2 m/S 715 mmHg 43%
    14:00 +24°C° 0 mm 2 m/S 715 mmHg 43%
    15:00 +24°C° 0 mm 2 m/S 715 mmHg 43%
    16:00 +23°C° 0 mm 2 m/S 715 mmHg 52%
    17:00 +21°C° 0 mm 2 m/S 714 mmHg 61%
    18:00 +19°C° 0 mm 2 m/S 714 mmHg 70%
    19:00 +18°C° 0 mm 2 m/S 714 mmHg 75%
    20:00 +16°C° 0 mm 2 m/S 715 mmHg 81%
    21:00 +14°C° 0 mm 1 m/S 715 mmHg 86%
    22:00 +13°C° 0 mm 1 m/S 714 mmHg 87%
    23:00 +13°C° 0 mm 1 m/S 714 mmHg 87%

    2 Juni, Dienstag

    Zeit Temperatur Niederschläge Wind Luftdruck Luftfeuchtigkeit
    00:00 +12°C° 0 mm 1 m/S 714 mmHg 87%
    01:00 +12°C° 0 mm 1 m/S 714 mmHg 87%
    02:00 +11°C° 0 mm 1 m/S 714 mmHg 88%
    03:00 +11°C° 0 mm 1 m/S 714 mmHg 88%
    04:00 +11°C° 0 mm 0 m/S 714 mmHg 85%
    05:00 +13°C° 0 mm 0 m/S 714 mmHg 82%
    06:00 +14°C° 0 mm 0 m/S 714 mmHg 79%
    07:00 +16°C° 0 mm 0 m/S 714 mmHg 72%
    08:00 +20°C° 0 mm 1 m/S 714 mmHg 65%
    09:00 +22°C° 0 mm 1 m/S 714 mmHg 58%
    10:00 +23°C° 0 mm 1 m/S 714 mmHg 57%
    11:00 +23°C° 0 mm 1 m/S 714 mmHg 55%
    12:00 +24°C° 0 mm 1 m/S 713 mmHg 53%
    13:00 +23°C° 0.3 mm 1 m/S 713 mmHg 59%
    14:00 +23°C° 0.3 mm 1 m/S 712 mmHg 65%
    15:00 +22°C° 0.3 mm 1 m/S 712 mmHg 71%
    16:00 +21°C° 0.5 mm 1 m/S 711 mmHg 77%
    17:00 +19°C° 0.5 mm 1 m/S 711 mmHg 84%
    18:00 +18°C° 0.5 mm 1 m/S 711 mmHg 90%
    19:00 +16°C° 0.1 mm 1 m/S 710 mmHg 91%
    20:00 +16°C° 0.1 mm 1 m/S 710 mmHg 92%
    21:00 +15°C° 0.1 mm 1 m/S 710 mmHg 92%
    22:00 +14°C° 0.3 mm 1 m/S 709 mmHg 93%
    23:00 +14°C° 0.3 mm 1 m/S 709 mmHg 94%

    3 Juni, Mittwoch

    Zeit Temperatur Niederschläge Wind Luftdruck Luftfeuchtigkeit
    00:00 +14°C° 0.3 mm 1 m/S 709 mmHg 95%
    01:00 +13°C° 0.3 mm 1 m/S 708 mmHg 96%
    02:00 +13°C° 0.3 mm 1 m/S 708 mmHg 96%
    03:00 +12°C° 0.3 mm 1 m/S 708 mmHg 96%
    04:00 +13°C° 0.6 mm 1 m/S 708 mmHg 96%
    05:00 +13°C° 0.6 mm 1 m/S 707 mmHg 96%
    06:00 +13°C° 0.6 mm 1 m/S 707 mmHg 97%
    07:00 +14°C° 0.6 mm 1 m/S 708 mmHg 93%
    08:00 +15°C° 0.6 mm 1 m/S 708 mmHg 90%
    09:00 +16°C° 0.6 mm 1 m/S 708 mmHg 87%
    10:00 +18°C° 0.2 mm 1 m/S 708 mmHg 81%
    11:00 +19°C° 0.2 mm 2 m/S 708 mmHg 74%
    12:00 +20°C° 0.2 mm 2 m/S 708 mmHg 68%
    13:00 +20°C° 0.6 mm 2 m/S 708 mmHg 67%
    14:00 +22°C° 0.6 mm 1 m/S 708 mmHg 67%
    15:00 +22°C° 0.6 mm 1 m/S 708 mmHg 66%
    16:00 +21°C° 0.3 mm 1 m/S 708 mmHg 72%
    17:00 +20°C° 0.3 mm 1 m/S 708 mmHg 78%
    18:00 +19°C° 0.3 mm 1 m/S 708 mmHg 84%
    19:00 +18°C° 0 mm 1 m/S 708 mmHg 87%
    20:00 +15°C° 0 mm 1 m/S 708 mmHg 89%
    21:00 +13°C° 0 mm 1 m/S 708 mmHg 92%
    22:00 +13°C° 0 mm 1 m/S 708 mmHg 91%
    23:00 +12°C° 0 mm 1 m/S 708 mmHg 91%

    4 Juni, Donnerstag

    Zeit Temperatur Niederschläge Wind Luftdruck Luftfeuchtigkeit
    00:00 +12°C° 0 mm 1 m/S 708 mmHg 91%
    01:00 +12°C° 0 mm 1 m/S 708 mmHg 91%
    02:00 +12°C° 0 mm 1 m/S 708 mmHg 91%
    03:00 +11°C° 0 mm 1 m/S 708 mmHg 90%
    04:00 +13°C° 0 mm 1 m/S 708 mmHg 88%
    05:00 +13°C° 0 mm 0 m/S 709 mmHg 86%
    06:00 +14°C° 0 mm 0 m/S 709 mmHg 84%
    07:00 +18°C° 0.1 mm 1 m/S 709 mmHg 76%
    08:00 +21°C° 0.1 mm 1 m/S 709 mmHg 68%
    09:00 +23°C° 0.1 mm 1 m/S 709 mmHg 59%
    10:00 +24°C° 0.3 mm 1 m/S 709 mmHg 58%
    11:00 +24°C° 0.3 mm 1 m/S 709 mmHg 56%
    12:00 +25°C° 0.3 mm 1 m/S 709 mmHg 54%
    13:00 +25°C° 0.6 mm 1 m/S 709 mmHg 58%
    14:00 +24°C° 0.6 mm 1 m/S 709 mmHg 61%
    15:00 +24°C° 0.6 mm 2 m/S 709 mmHg 65%
    16:00 +21°C° 0.9 mm 2 m/S 709 mmHg 74%
    17:00 +20°C° 0.9 mm 1 m/S 709 mmHg 83%
    18:00 +18°C° 0.9 mm 1 m/S 709 mmHg 92%
    19:00 +18°C° 1.5 mm 1 m/S 709 mmHg 93%
    20:00 +16°C° 1.5 mm 1 m/S 709 mmHg 95%
    21:00 +16°C° 1.5 mm 1 m/S 709 mmHg 96%
    22:00 +15°C° 0.1 mm 1 m/S 709 mmHg 96%
    23:00 +15°C° 0.1 mm 1 m/S 709 mmHg 95%
    Mehr zeigen